| time (UTC) | temp F | wind direction | speed MPH | gust MPH | rain 1hr in | rain 24hr in | rain mn in | humidity % | barometer mb |
| 20260831151550 | 70 | 70 | 0.0 | 0.0 | 0.02 | 0.35 | 0.33 | 82 | 1012.5 |
| 20260831150044 | 69 | 70 | 0.0 | 0.0 | 0.06 | 0.35 | 0.33 | 83 | 1012.8 |
| 20260831144600 | 69 | 72 | 0.0 | 0.0 | 0.09 | 0.35 | 0.33 | 83 | 1013.0 |
| 20260831143042 | 69 | 72 | 0.0 | 0.0 | 0.13 | 0.35 | 0.33 | 83 | 1012.8 |
| 20260831141541 | 68 | 72 | 0.0 | 0.0 | 0.17 | 0.33 | 0.31 | 83 | 1012.9 |
| 20260831140040 | 68 | 73 | 0.0 | 0.0 | 0.17 | 0.28 | 0.27 | 82 | 1013.6 |
| 20260831134538 | 68 | 87 | 0.0 | 0.0 | 0.18 | 0.26 | 0.24 | 83 | 1013.2 |
| 20260831133038 | 67 | 96 | 0.0 | 0.0 | 0.15 | 0.22 | 0.20 | 84 | 1013.4 |
| 20260831131536 | 67 | 97 | 0.0 | 0.0 | 0.10 | 0.16 | 0.14 | 84 | 1013.8 |
| 20260831130034 | 67 | 101 | 0.0 | 0.0 | 0.07 | 0.12 | 0.10 | 83 | 1013.6 |
| 20260831124537 | 67 | 101 | 0.0 | 0.0 | 0.03 | 0.08 | 0.06 | 85 | 1013.4 |
| 20260831123035 | 67 | 101 | 0.0 | 0.0 | 0.02 | 0.07 | 0.05 | 85 | 1012.8 |
| 20260831121541 | 67 | 101 | 0.0 | 0.0 | 0.01 | 0.06 | 0.04 | 85 | 1012.7 |
| 20260831120036 | 67 | 101 | 0.0 | 0.0 | 0.00 | 0.05 | 0.03 | 85 | 1012.3 |
| 20260831114546 | 67 | 101 | 0.0 | 0.0 | 0.00 | 0.05 | 0.03 | 85 | 1012.3 |
| 20260831113028 | 67 | 101 | 0.0 | 0.0 | 0.02 | 0.05 | 0.03 | 85 | 1012.3 |
| 20260831111529 | 67 | 101 | 0.0 | 0.0 | 0.03 | 0.05 | 0.03 | 85 | 1011.9 |
| 20260831110028 | 67 | 101 | 0.0 | 1.0 | 0.03 | 0.05 | 0.03 | 85 | 1011.7 |
| 20260831104532 | 67 | 105 | 0.0 | 0.0 | 0.03 | 0.05 | 0.03 | 85 | 1012.1 |
| 20260831103022 | 67 | 114 | 0.0 | 1.0 | 0.01 | 0.03 | 0.01 | 85 | 1012.7 |
| 20260831101520 | 67 | 114 | 0.0 | 0.0 | 0.00 | 0.02 | 0.00 | 85 | 1013.3 |
| 20260831100019 | 67 | 114 | 0.0 | 0.0 | 0.00 | 0.02 | 0.00 | 85 | 1013.5 |
| 20260831094519 | 67 | 114 | 0.0 | 0.0 | 0.00 | 0.02 | 0.00 | 85 | 1014.1 |
| 20260831093021 | 67 | 114 | 0.0 | 0.0 | 0.00 | 0.02 | 0.00 | 85 | 1014.1 |
| 20260831091518 | 67 | 114 | 0.0 | 0.0 | 0.00 | 0.02 | 0.00 | 85 | 1013.9 |
| 20260831090017 | 67 | 114 | 0.0 | 0.0 | 0.00 | 0.02 | 0.00 | 86 | 1014.0 |
| 20260831084516 | 67 | 114 | 0.0 | 0.0 | 0.00 | 0.02 | 0.00 | 86 | 1013.7 |
| 20260831083016 | 67 | 114 | 0.0 | 0.0 | 0.00 | 0.02 | 0.00 | 86 | 1013.9 |
| 20260831081515 | 67 | 114 | 0.0 | 0.0 | 0.00 | 0.02 | 0.00 | 86 | 1014.2 |
| 20260831080014 | 67 | 114 | 0.0 | 0.0 | 0.00 | 0.02 | 0.00 | 86 | 1014.1 |
| 20260831074514 | 67 | 114 | 0.0 | 0.0 | 0.00 | 0.02 | 0.00 | 86 | 1014.1 |
| 20260831073017 | 67 | 114 | 0.0 | 0.0 | 0.00 | 0.02 | 0.00 | 86 | 1013.8 |
| 20260831071518 | 67 | 114 | 0.0 | 0.0 | 0.00 | 0.02 | 0.00 | 86 | 1013.2 |
| 20260831070014 | 67 | 114 | 0.0 | 0.0 | 0.00 | 0.02 | 0.00 | 86 | 1013.2 |
| 20260831064514 | 67 | 114 | 0.0 | 0.0 | 0.00 | 0.02 | 0.00 | 86 | 1013.6 |
| 20260831063013 | 67 | 114 | 0.0 | 0.0 | 0.00 | 0.02 | 0.00 | 86 | 1013.7 |
| 20260831061506 | 66 | 114 | 0.0 | 0.0 | 0.00 | 0.02 | 0.00 | 87 | 1014.0 |
| 20260831060006 | 66 | 114 | 0.0 | 0.0 | 0.00 | 0.02 | 0.00 | 87 | 1014.0 |
| 20260831054505 | 66 | 114 | 0.0 | 0.0 | 0.00 | 0.02 | 0.00 | 87 | 1013.9 |
| 20260831053004 | 66 | 114 | 0.0 | 0.0 | 0.00 | 0.02 | 0.00 | 87 | 1014.0 |
| 20260831051504 | 66 | 114 | 0.0 | 0.0 | 0.00 | 0.02 | 0.00 | 88 | 1014.1 |
| 20260831050002 | 66 | 114 | 0.0 | 0.0 | 0.00 | 0.02 | 0.00 | 88 | 1014.1 |
| 20260831044501 | 67 | 114 | 0.0 | 0.0 | 0.00 | 0.03 | 0.00 | 88 | 1013.9 |
| 20260831043102 | 67 | 114 | 0.0 | 0.0 | 0.00 | 0.03 | 0.00 | 88 | 1014.1 |
| 20260831041619 | 67 | 114 | 0.0 | 0.0 | 0.00 | 0.03 | 0.00 | 88 | 1014.1 |
| 20260831040058 | 67 | 114 | 0.0 | 0.0 | 0.00 | 0.03 | 0.00 | 88 | 1014.2 |
| 20260831034556 | 66 | 114 | 0.0 | 0.0 | 0.00 | 0.05 | 0.03 | 88 | 1014.3 |
| 20260831033110 | 66 | 114 | 0.0 | 0.0 | 0.00 | 0.05 | 0.03 | 88 | 1014.0 |
| 20260831031556 | 66 | 114 | 0.0 | 0.0 | 0.00 | 0.05 | 0.03 | 89 | 1014.2 |
| 20260831030055 | 66 | 114 | 0.0 | 0.0 | 0.00 | 0.05 | 0.03 | 89 | 1014.5 |
| 20260831024557 | 66 | 114 | 0.0 | 0.0 | 0.00 | 0.08 | 0.03 | 89 | 1014.2 |
| 20260831023055 | 66 | 114 | 0.0 | 1.0 | 0.00 | 0.08 | 0.03 | 89 | 1014.2 |
| 20260831021554 | 66 | 117 | 0.0 | 3.0 | 0.00 | 0.08 | 0.03 | 89 | 1014.3 |
| 20260831020054 | 66 | 124 | 0.0 | 1.0 | 0.00 | 0.08 | 0.03 | 89 | 1014.3 |
| 20260831014601 | 66 | 124 | 0.0 | 1.0 | 0.00 | 0.08 | 0.03 | 89 | 1014.2 |
| 20260831013056 | 67 | 117 | 0.0 | 0.0 | 0.00 | 0.08 | 0.03 | 89 | 1014.0 |
| 20260831011550 | 67 | 117 | 0.0 | 1.0 | 0.00 | 0.08 | 0.03 | 89 | 1014.0 |
| 20260831010107 | 67 | 117 | 0.0 | 0.0 | 0.00 | 0.08 | 0.03 | 90 | 1013.9 |
| 20260831004550 | 67 | 117 | 0.0 | 0.0 | 0.00 | 0.08 | 0.03 | 90 | 1013.7 |
| 20260831003102 | 67 | 115 | 0.0 | 0.0 | 0.00 | 0.08 | 0.03 | 89 | 1013.4 |
| 20260831001549 | 68 | 139 | 0.0 | 0.0 | 0.00 | 0.08 | 0.03 | 89 | 1013.5 |
| 20260831000051 | 68 | 115 | 0.0 | 1.0 | 0.00 | 0.08 | 0.03 | 89 | 1013.7 |
| 20260830234554 | 68 | 115 | 0.0 | 1.0 | 0.00 | 0.08 | 0.03 | 89 | 1013.5 |
| 20260830233047 | 68 | 117 | 0.0 | 3.0 | 0.00 | 0.08 | 0.03 | 90 | 1013.3 |
| 20260830231549 | 68 | 110 | 0.0 | 2.0 | 0.00 | 0.08 | 0.03 | 90 | 1013.6 |
| 20260830230049 | 68 | 114 | 0.0 | 1.0 | 0.00 | 0.08 | 0.03 | 90 | 1013.6 |
| 20260830224555 | 68 | 108 | 0.0 | 2.0 | 0.01 | 0.08 | 0.03 | 90 | 1013.7 |
| 20260830223047 | 68 | 115 | 0.0 | 2.0 | 0.01 | 0.08 | 0.03 | 91 | 1014.1 |
| 20260830221544 | 68 | 123 | 0.0 | 0.0 | 0.01 | 0.08 | 0.03 | 91 | 1014.0 |
| 20260830220046 | 68 | 117 | 0.0 | 0.0 | 0.02 | 0.08 | 0.03 | 91 | 1014.0 |
| 20260830214546 | 68 | 119 | 0.0 | 0.0 | 0.01 | 0.07 | 0.02 | 92 | 1014.0 |
| 20260830213043 | 69 | 119 | 0.0 | 0.0 | 0.01 | 0.07 | 0.02 | 92 | 1014.3 |
| 20260830211542 | 69 | 119 | 0.0 | 0.0 | 0.01 | 0.07 | 0.02 | 92 | 1014.1 |
| 20260830210051 | 69 | 119 | 0.0 | 0.0 | 0.00 | 0.06 | 0.01 | 91 | 1013.8 |
| 20260830204542 | 69 | 101 | 0.0 | 1.0 | 0.00 | 0.06 | 0.01 | 91 | 1013.6 |
| 20260830203041 | 69 | 110 | 0.0 | 2.0 | 0.00 | 0.06 | 0.01 | 91 | 1013.5 |
| 20260830201541 | 70 | 124 | 0.0 | 3.0 | 0.00 | 0.06 | 0.01 | 90 | 1013.7 |
| 20260830200057 | 70 | 117 | 0.0 | 3.0 | 0.00 | 0.06 | 0.01 | 90 | 1013.6 |
| 20260830194549 | 71 | 118 | 0.0 | 1.0 | 0.00 | 0.06 | 0.01 | 89 | 1013.6 |
| 20260830193039 | 72 | 115 | 0.0 | 1.0 | 0.00 | 0.06 | 0.01 | 88 | 1013.6 |
| 20260830191538 | 72 | 170 | 0.0 | 0.0 | 0.00 | 0.06 | 0.01 | 88 | 1013.4 |
| 20260830190039 | 73 | 188 | 0.0 | 0.0 | 0.00 | 0.06 | 0.01 | 87 | 1013.5 |
| 20260830184537 | 73 | 188 | 0.0 | 0.0 | 0.00 | 0.06 | 0.01 | 87 | 1013.6 |
| 20260830183035 | 73 | 115 | 0.0 | 0.0 | 0.00 | 0.06 | 0.01 | 87 | 1013.6 |
| 20260830181532 | 72 | 238 | 0.0 | 0.0 | 0.00 | 0.06 | 0.01 | 89 | 1013.7 |
| 20260830180030 | 71 | 238 | 0.0 | 0.0 | 0.00 | 0.06 | 0.01 | 88 | 1013.8 |
| 20260830174531 | 71 | 238 | 0.0 | 1.0 | 0.00 | 0.06 | 0.01 | 89 | 1013.9 |
| 20260830173035 | 70 | 238 | 0.0 | 0.0 | 0.00 | 0.06 | 0.01 | 88 | 1013.7 |
| 20260830171526 | 70 | 238 | 0.0 | 0.0 | 0.00 | 0.06 | 0.01 | 90 | 1013.7 |
| 20260830170023 | 69 | 238 | 0.0 | 1.0 | 0.00 | 0.06 | 0.01 | 92 | 1013.9 |
| 20260830164521 | 69 | 238 | 0.0 | 0.0 | 0.00 | 0.06 | 0.01 | 91 | 1013.9 |
| 20260830163023 | 68 | 113 | 0.0 | 0.0 | 0.00 | 0.06 | 0.01 | 86 | 1013.9 |
| 20260830161520 | 67 | 113 | 0.0 | 0.0 | 0.00 | 0.06 | 0.01 | 85 | 1014.1 |
| 20260830160019 | 66 | 113 | 0.0 | 0.0 | 0.00 | 0.06 | 0.01 | 86 | 1014.2 |
| 20260830154516 | 66 | 113 | 0.0 | 0.0 | 0.00 | 0.06 | 0.01 | 86 | 1014.2 |
| 20260830153031 | 66 | 113 | 0.0 | 0.0 | 0.00 | 0.06 | 0.01 | 86 | 1014.3 |